Location: UMBC
(39.2555°N, 76.7093°W)
Time: 03:50:46
(UTC+02:00)

Amateur Radio Satellites - All Passes

Search period start: 02 September 2014 03:20
Search period end: 03 September 2014 03:20
Location: UMBC, 39.2555°N, 76.7093°W

Satellite Date Start Highest point End Downlink Frequencies (MHz)
Time Altitude Azimuth
MaSat-1 02 Sep 03:33:37 03:36:14 15° 48° (NE) 03:38:41 437.345 MHz
KITSAT 1 02 Sep 03:37:01 03:39:56 12° 98° (E) 03:42:50 435.175 FM
UKube-1 02 Sep 04:08:22 04:12:35 52° 260° (W) 04:16:50 145.840 MHz, 145.915 MHz
Oscar 11 02 Sep 04:12:01 04:16:21 79° 258° (WSW) 04:20:44 145.825 FM, Beacon 2401.500 USB
AO-40 02 Sep 04:12:18 10:41:36 44° 177° (S) 12:49:02 Beacon 2401.320
HO-68 02 Sep 04:35:57 04:41:47 27° 265° (W) 04:47:39 435.675 MHz FM
Saudisat 1A 02 Sep 04:43:47 04:48:10 72° 303° (WNW) 04:52:36 436.775 MHz
FUNcube-1 02 Sep 04:43:51 04:48:02 87° 78° (ENE) 04:52:20 145.950 - 145.970 MHz USB
MaSat-1 02 Sep 05:09:24 05:13:46 56° 250° (WSW) 05:17:29 437.345 MHz
KITSAT 1 02 Sep 05:25:53 05:33:55 74° 116° (ESE) 05:42:00 435.175 FM
Sapphire 02 Sep 06:26:35 06:29:01 13° 41° (NE) 06:31:27 437.095 MHz 1200 baud AX-25 AFSK
Saudisat 1A 02 Sep 06:27:37 06:28:33 11° 322° (NW) 06:29:30 436.775 MHz
PCSat 02 Sep 06:54:40 06:58:49 22° 48° (NE) 07:02:57 145.825 MHz
KITSAT 1 02 Sep 07:23:18 07:30:04 28° 317° (NW) 07:36:52 435.175 FM
Oscar 16 02 Sep 07:36:39 07:40:08 18° 92° (E) 07:43:36 437.025 USB, Beacon 2401.1428
Sapphire 02 Sep 08:07:57 08:13:24 75° 61° (ENE) 08:18:48 437.095 MHz 1200 baud AX-25 AFSK
AO-27 02 Sep 08:09:05 08:12:00 15° 92° (E) 08:14:54 436.795 MHz FM
PCSat 02 Sep 08:37:17 08:42:37 58° 246° (WSW) 08:47:54 145.825 MHz
Oscar 19 02 Sep 08:39:16 08:44:28 71° 102° (ESE) 08:49:38 437.125 CW, 437.150 USB
AO-Echo 02 Sep 08:48:17 08:52:41 39° 98° (E) 08:57:07 ?
Gurwin Techsat 1B 02 Sep 08:50:01 08:53:26 17° 92° (E) 08:56:50 435.225 FM
Oscar 16 02 Sep 09:14:44 09:19:46 52° 288° (WNW) 09:24:47 437.025 USB, Beacon 2401.1428
ITAMSAT 1 02 Sep 09:17:00 09:22:11 69° 102° (ESE) 09:27:21 435.822 SSB
Oscar 10/S400 02 Sep 09:22:24 10:36:24 38° 234° (SW) 15:16:14 145.825 - 145.975 CW/USB, Beacon 145.810 USB
SO-50 02 Sep 09:22:51 09:27:15 66° 119° (ESE) 09:31:47 436.795 FM
Uribyol 2 02 Sep 09:26:20 09:31:33 90° 102° (ESE) 09:36:46 436.500 FM
JAS-1B 02 Sep 09:32:13 09:38:49 79° 103° (ESE) 09:44:36 435.800 - 435.900 CW/SSB
TMSAT-1 02 Sep 09:38:51 09:43:44 37° 97° (E) 09:48:36 436.925 FM
AO-7 02 Sep 09:44:26 09:47:17 12° 88° (E) 09:50:06 29.400 - 29.500 MHz
AO-27 02 Sep 09:46:47 09:51:54 61° 287° (WNW) 09:57:00 436.795 MHz FM
Sapphire 02 Sep 09:53:30 09:56:07 14° 257° (WSW) 09:58:44 437.095 MHz 1200 baud AX-25 AFSK
OPAL 02 Sep 10:15:36 10:20:26 47° 69° (ENE) 10:25:22 ?
Oscar 19 02 Sep 10:20:27 10:23:11 15° 299° (WNW) 10:25:54 437.125 CW, 437.150 USB
AO-Echo 02 Sep 10:27:47 10:31:12 20° 294° (WNW) 10:34:38 ?
Gurwin Techsat 1B 02 Sep 10:28:33 10:33:44 56° 288° (WNW) 10:38:54 435.225 FM
ITAMSAT 1 02 Sep 10:58:16 11:01:04 15° 299° (WNW) 11:03:53 435.822 SSB
SO-50 02 Sep 11:05:24 11:08:17 16° 317° (NW) 11:11:13 436.795 FM
Uribyol 2 02 Sep 11:08:38 11:10:14 11° 301° (WNW) 11:11:51 436.500 FM
UOSAT-12 02 Sep 11:08:42 11:13:14 62° 118° (ESE) 11:17:52 437.025 FM, 437.400 FM
TMSAT-1 02 Sep 11:19:06 11:23:28 27° 293° (WNW) 11:27:50 436.925 FM
Uosat F 02 Sep 11:19:12 11:24:10 61° 102° (ESE) 11:29:07 435.120 FM
JAS-1B 02 Sep 11:24:47 11:28:25 16° 305° (NW) 11:31:49 435.800 - 435.900 CW/SSB
KITSAT 1 02 Sep 11:27:54 11:29:08 10° 18° (NNE) 11:30:22 435.175 FM
AO-7 02 Sep 11:33:01 11:41:20 73° 106° (ESE) 11:49:35 29.400 - 29.500 MHz
OPAL 02 Sep 11:55:56 11:59:33 20° 265° (W) 12:03:12 ?
STRAND 1 02 Sep 12:04:37 12:08:31 23° 65° (ENE) 12:12:26 ?
Hamsat 02 Sep 12:23:37 12:27:21 28° 96° (E) 12:31:02 145.90 MHz
JAS-2 02 Sep 12:28:57 12:33:45 33° 98° (E) 12:38:55 435.800 - 435.900 CW/SSB, 435.910 FM
UOSAT-12 02 Sep 12:50:35 12:53:48 18° 317° (NW) 12:57:03 437.025 FM, 437.400 FM
Uosat F 02 Sep 12:59:32 13:02:26 16° 298° (WNW) 13:05:20 435.120 FM
Saudisat 1A 02 Sep 13:11:30 13:15:54 65° 57° (ENE) 13:20:16 436.775 MHz
KITSAT 1 02 Sep 13:20:39 13:27:42 32° 45° (NE) 13:34:42 435.175 FM
RS-15 02 Sep 13:23:41 13:34:30 61° 113° (ESE) 13:45:07 29.354 - 29.394 USB, Beacon 29.352 USB
AO-7 02 Sep 13:26:58 13:33:20 26° 304° (NW) 13:39:43 29.400 - 29.500 MHz
STRAND 1 02 Sep 13:42:38 13:47:26 41° 261° (W) 13:52:15 ?
Hamsat 02 Sep 13:59:41 14:03:11 24° 291° (WNW) 14:06:39 145.90 MHz
JAS-2 02 Sep 14:14:15 14:18:48 30° 292° (WNW) 14:23:39 435.800 - 435.900 CW/SSB, 435.910 FM
SO-67 02 Sep 14:38:17 14:41:37 45° 285° (WNW) 14:44:54 435.3500 MHz FM
Saudisat 1A 02 Sep 14:53:14 14:54:55 12° 252° (WSW) 14:56:36 436.775 MHz
KITSAT 1 02 Sep 15:15:40 15:23:38 65° 246° (WSW) 15:31:32 435.175 FM
RS-15 02 Sep 15:37:04 15:47:17 42° 316° (NW) 15:57:29 29.354 - 29.394 USB, Beacon 29.352 USB
ISS 02 Sep 15:47:26 15:50:43 65° 139° (SE) 15:54:01 145.800 FM
UKube-1 02 Sep 15:57:57 16:01:41 27° 97° (E) 16:05:23 145.840 MHz, 145.915 MHz
Oscar 11 02 Sep 16:01:34 16:04:49 20° 94° (E) 16:08:03 145.825 FM, Beacon 2401.500 USB
HO-68 02 Sep 16:02:58 16:10:04 63° 103° (ESE) 16:17:08 435.675 MHz FM
FUNcube-1 02 Sep 16:34:40 16:37:59 20° 94° (E) 16:41:19 145.950 - 145.970 MHz USB
ISS 02 Sep 17:25:10 17:27:43 20° 337° (NNW) 17:30:15 145.800 FM
PANSAT 02 Sep 17:31:31 17:33:40 14° 171° (S) 17:35:48 not established
UKube-1 02 Sep 17:34:14 17:37:46 25° 292° (WNW) 17:41:18 145.840 MHz, 145.915 MHz
Oscar 11 02 Sep 17:37:08 17:41:04 33° 289° (WNW) 17:44:58 145.825 FM, Beacon 2401.500 USB
HO-68 02 Sep 17:51:38 17:57:13 26° 300° (WNW) 18:02:48 435.675 MHz FM
SO-50 02 Sep 17:55:21 17:59:58 45° 53° (NE) 18:04:38 436.795 FM
RS-15 02 Sep 17:56:55 18:03:50 18° 349° (N) 18:10:48 29.354 - 29.394 USB, Beacon 29.352 USB
FUNcube-1 02 Sep 18:10:15 18:14:28 38° 288° (WNW) 18:18:44 145.950 - 145.970 MHz USB
Oscar 19 02 Sep 18:20:06 18:21:40 11° 59° (ENE) 18:23:14 437.125 CW, 437.150 USB
JAS-1B 02 Sep 18:27:35 18:32:22 16° 54° (NE) 18:36:52 435.800 - 435.900 CW/SSB
Oscar 16 02 Sep 18:52:32 18:56:38 24° 66° (ENE) 19:00:45 437.025 USB, Beacon 2401.1428
MaSat-1 02 Sep 18:54:50 18:59:41 74° 112° (ESE) 19:04:51 437.345 MHz
ITAMSAT 1 02 Sep 18:58:46 19:00:28 12° 59° (ENE) 19:02:10 435.822 SSB
ISS 02 Sep 19:05:25 19:05:29 10° 357° (N) 19:05:32 145.800 FM
Uribyol 2 02 Sep 19:06:41 19:09:32 15° 62° (ENE) 19:12:22 436.500 FM
PANSAT 02 Sep 19:10:45 19:13:11 16° 184° (S) 19:15:36 not established
AO-27 02 Sep 19:26:02 19:29:56 22° 65° (ENE) 19:33:49 436.795 MHz FM
SO-50 02 Sep 19:36:40 19:40:15 21° 249° (WSW) 19:43:50 436.795 FM
UOSAT-12 02 Sep 19:39:26 19:43:54 40° 52° (NE) 19:48:18 437.025 FM, 437.400 FM
Oscar 19 02 Sep 19:55:02 20:00:12 90° 256° (WSW) 20:05:25 437.125 CW, 437.150 USB
AO-Echo 02 Sep 20:00:04 20:04:52 48° 72° (ENE) 20:09:31 ?
Gurwin Techsat 1B 02 Sep 20:09:55 20:14:12 25° 66° (ENE) 20:18:29 435.225 FM
JAS-1B 02 Sep 20:11:56 20:21:34 67° 71° (ENE) 20:30:07 435.800 - 435.900 CW/SSB
RS-15 02 Sep 20:13:37 20:21:58 24° 26° (NNE) 20:30:28 29.354 - 29.394 USB, Beacon 29.352 USB
Oscar 16 02 Sep 20:30:56 20:35:44 39° 262° (W) 20:40:36 437.025 USB, Beacon 2401.1428
ITAMSAT 1 02 Sep 20:34:01 20:39:11 88° 256° (WSW) 20:44:23 435.822 SSB
MaSat-1 02 Sep 20:34:06 20:37:17 17° 311° (NW) 20:40:32 437.345 MHz
ISS 02 Sep 20:41:25 20:43:22 15° 17° (NNE) 20:45:19 145.800 FM
AO-7 02 Sep 20:41:40 20:47:10 20° 52° (NE) 20:52:39 29.400 - 29.500 MHz
Uribyol 2 02 Sep 20:43:18 20:48:24 68° 258° (WSW) 20:53:34 436.500 FM
TMSAT-1 02 Sep 20:58:32 21:03:38 52° 72° (ENE) 21:08:45 436.925 FM
AO-27 02 Sep 21:04:12 21:09:07 44° 261° (W) 21:14:04 436.795 MHz FM
UOSAT-12 02 Sep 21:20:08 21:23:48 23° 249° (WSW) 21:27:24 437.025 FM, 437.400 FM
PCSat 02 Sep 21:36:07 21:40:06 21° 106° (ESE) 21:44:05 145.825 MHz
AO-Echo 02 Sep 21:40:30 21:43:50 18° 267° (W) 21:47:07 ?
Gurwin Techsat 1B 02 Sep 21:49:00 21:53:56 39° 262° (W) 21:58:54 435.225 FM
JAS-1B 02 Sep 22:04:10 22:12:18 30° 266° (W) 22:19:50 435.800 - 435.900 CW/SSB
ISS 02 Sep 22:17:21 22:20:39 61° 36° (NE) 22:23:57 145.800 FM
RS-15 02 Sep 22:25:54 22:36:58 67° 54° (NE) 22:48:25 29.354 - 29.394 USB, Beacon 29.352 USB
OPAL 02 Sep 22:28:23 22:30:53 13° 93° (E) 22:33:23 ?
AO-7 02 Sep 22:30:27 22:38:48 87° 71° (ENE) 22:47:11 29.400 - 29.500 MHz
Uosat F 02 Sep 22:31:23 22:36:23 76° 75° (ENE) 22:41:23 435.120 FM
TMSAT-1 02 Sep 22:40:14 22:43:50 18° 268° (W) 22:47:27 436.925 FM
JAS-2 02 Sep 22:43:40 22:46:03 13° 61° (ENE) 22:48:21 435.800 - 435.900 CW/SSB, 435.910 FM
Sapphire 02 Sep 22:48:28 22:53:52 86° 117° (ESE) 22:59:19 437.095 MHz 1200 baud AX-25 AFSK
Hamsat 02 Sep 23:16:36 23:19:37 19° 67° (ENE) 23:22:39 145.90 MHz
PCSat 02 Sep 23:17:52 23:23:06 50° 303° (WNW) 23:28:23 145.825 MHz
ISS 02 Sep 23:55:19 23:57:01 13° 231° (SW) 23:58:42 145.800 FM
OPAL 03 Sep 00:05:01 00:10:14 70° 288° (WNW) 00:15:23 ?
Uosat F 03 Sep 00:14:21 00:15:41 11° 270° (W) 00:17:02 435.120 FM
JAS-2 03 Sep 00:24:27 00:30:34 85° 256° (WSW) 00:36:04 435.800 - 435.900 CW/SSB, 435.910 FM
AO-7 03 Sep 00:27:15 00:32:29 18° 269° (W) 00:37:45 29.400 - 29.500 MHz
Sapphire 03 Sep 00:34:47 00:38:01 16° 316° (NW) 00:41:16 437.095 MHz 1200 baud AX-25 AFSK
RS-15 03 Sep 00:39:05 00:48:36 34° 254° (WSW) 00:58:29 29.354 - 29.394 USB, Beacon 29.352 USB
Hamsat 03 Sep 00:51:17 00:55:17 37° 263° (W) 00:59:21 145.90 MHz
SO-67 03 Sep 01:10:01 01:13:19 43° 75° (ENE) 01:16:38 435.3500 MHz FM
STRAND 1 03 Sep 01:53:52 01:58:59 72° 103° (ESE) 02:04:05 ?
HO-68 03 Sep 02:30:26 02:37:01 42° 65° (ENE) 02:43:37 435.675 MHz FM
UKube-1 03 Sep 02:52:56 02:56:16 22° 67° (ENE) 02:59:37 145.840 MHz, 145.915 MHz
Oscar 11 03 Sep 02:56:36 02:59:05 15° 65° (ENE) 03:01:34 145.825 FM, Beacon 2401.500 USB
MaSat-1 03 Sep 03:15:11 03:17:28 14° 47° (NE) 03:19:37 437.345 MHz
